Mullan Pass, ID

4:17 PM PST on November 18, 2017 (GMT -0800)
Mullan Pass

Weather History for KMLP - August, 2013

Change the Weather History Date:

Wednesday, August 14, 2013

  Actual Average (K3TH) Record (K3TH)
Temperature  
Mean Temperature 67 °F -  
Max Temperature 75 °F 84 °F 99 °F (1998)
Min Temperature 59 °F 54 °F 57 °F (1996)
Cooling Degree Days 2    
Growing Degree Days 17 (Base 50)    
Moisture  
Dew Point 41 °F    
Average Humidity 40    
Maximum Humidity 58    
Minimum Humidity 28    
Precipitation  
Precipitation 0.00 in - - ()
Sea Level Pressure  
Sea Level Pressure 29.89 in    
Wind  
Wind Speed 4 mph (SE)    
Max Wind Speed 9 mph    
Max Gust Speed -    
Visibility 10 miles    
Events      
Averages and records for this station are not official NWS values.
T = Trace of Precipitation, MM = Missing Value Source: NWS Daily Summary

Daily Weather History Graph

Daily Weather History Graph

Search for Another Location

Airport or City:

Trip Planner

Search our weather history database for the weather conditions in past years. The results will help you decide how hot, cold, wet, or windy it might be!

Date:

Astronomy

Aug. 14, 2013 Rise Set
Actual Time 5:38 AM PDT 7:55 PM PDT
Civil Twilight 5:04 AM PDT 8:29 PM PDT
Nautical Twilight 4:21 AM PDT 9:11 PM PDT
Astronomical Twilight 3:33 AM PDT 9:59 PM PDT
Moon 2:18 PM PDT (8/14) 11:46 PM PDT (8/14)
Length of Visible Light 15h 25m
Length of Day
14h 17m
First Quarter, 54% of the Moon is Illuminated
Aug 14
First Quarter
Aug 20
Full
Aug 28
Last Quarter
Sep 5
New
Sep 12
First Quarter

Hourly Weather History & Observations

Time (PDT) Temp. Dew Point Humidity Pressure Visibility Wind Dir Wind Speed Gust Speed Precip Events Conditions
12:53 AM 61.0 °F 39.9 °F 46% 29.93 in 10.0 mi SE 5.8 mph - N/A   Clear
1:53 AM 59.0 °F 42.1 °F 53% 29.91 in 10.0 mi SSE 6.9 mph - N/A   Clear
2:53 AM 60.1 °F 41.0 °F 49% 29.91 in 10.0 mi South 5.8 mph - N/A   Clear
3:53 AM 60.1 °F 42.1 °F 51% 29.91 in 10.0 mi South 5.8 mph - N/A   Clear
4:53 AM 61.0 °F 42.1 °F 50% 29.91 in 10.0 mi WSW 3.5 mph - N/A   Clear
5:53 AM 61.0 °F 37.9 °F 42% 29.92 in 10.0 mi Calm Calm - N/A   Clear
6:53 AM 61.0 °F 43.0 °F 52% 29.93 in 10.0 mi Calm Calm - N/A   Clear
7:53 AM 64.0 °F 45.0 °F 50% 29.94 in 10.0 mi Calm Calm - N/A   Clear
8:53 AM 66.0 °F 43.0 °F 43% 29.93 in 10.0 mi Calm Calm - N/A   Clear
9:53 AM 66.0 °F 46.9 °F 50% 29.93 in 10.0 mi Variable 3.5 mph - N/A   Clear
10:53 AM 64.9 °F 50.0 °F 58% 29.94 in 10.0 mi Variable 5.8 mph - N/A   Clear
11:53 AM 69.1 °F 42.1 °F 38% 29.93 in 10.0 mi SSE 4.6 mph - N/A   Clear
12:53 PM 72.0 °F 42.1 °F 34% 29.91 in 10.0 mi Calm Calm - N/A   Clear
1:53 PM 73.9 °F 42.1 °F 32% 29.91 in 10.0 mi Calm Calm - N/A   Clear
2:53 PM 73.9 °F 41.0 °F 30% 29.89 in 10.0 mi Calm Calm - N/A   Clear
3:53 PM 75.9 °F 42.1 °F 30% 29.88 in 10.0 mi Calm Calm - N/A   Clear
4:53 PM 73.9 °F 39.0 °F 28% 29.86 in 10.0 mi Calm Calm - N/A   Clear
5:53 PM 69.1 °F 44.1 °F 40% 29.86 in 10.0 mi Calm Calm - N/A   Clear
6:53 PM 68.0 °F 39.0 °F 35% 29.86 in 10.0 mi ESE 4.6 mph - N/A   Clear
7:53 PM 69.1 °F 35.1 °F 29% 29.84 in 10.0 mi ESE 5.8 mph - N/A   Clear
8:53 PM 68.0 °F 35.1 °F 30% 29.84 in 10.0 mi ESE 6.9 mph - N/A   Clear
9:53 PM 66.9 °F 36.0 °F 32% 29.84 in 10.0 mi ESE 8.1 mph - N/A   Clear
10:53 PM 66.9 °F 36.0 °F 32% 29.85 in 10.0 mi SE 8.1 mph - N/A   Clear
11:53 PM 66.0 °F 35.1 °F 32% 29.83 in 10.0 mi SE 9.2 mph - N/A   Clear